User: anonymous   Login
Location: �clusier
(49.9361°N, 2.7869°E)
Time: 23:21:38
(UTC+00:00)
Language:

KORONAS-FOTON - Orbit

View from above orbital plane
View from above orbital plane
View from above satellite
View from above satellite

Ground track
Ground track

The orbit data is extracted from the following two-line orbital elements,

1 33504U 09003A   21269.33990743  .00001188  00000-0  59677-4 0  9991
2 33504  82.4394 119.1068 0020372 105.2909 255.0577 15.16122361697936
Epoch (UTC): 26 September 2021 08:09:28
Eccentricity: 0.0020372
inclination: 82.4394°
perigee height: 503 km
apogee height: 531 km
right ascension of ascending node: 119.1068°
argument of perigee: 105.2909°
revolutions per day: 15.16122361
mean anomaly at epoch: 255.0577°
orbit number at epoch: 69793

The dashed part of the orbit path shows where the satellite is in the earth's shadow,  

DLR